Time,TemperatureF,DewpointF,PressureIn,WindDirection,WindDirectionDegrees,WindSpeedMPH,WindSpeedGustMPH,Humidity,HourlyPrecipIn,Conditions,Clouds,dailyrainin,SoftwareType,DateUTC
2013-06-29 00:01:00,73.0,59.0,29.84,North,360,0.0,0.0,61,0.00,,,0.00,,2013-06-29 05:01:00,
2013-06-29 00:11:00,73.0,59.0,29.84,North,360,0.0,0.0,61,0.00,,,0.00,,2013-06-29 05:11:00,
2013-06-29 00:21:00,73.0,59.0,29.84,North,360,0.0,0.0,61,0.00,,,0.00,,2013-06-29 05:21:00,
2013-06-29 00:31:00,73.0,59.0,29.84,North,360,0.0,0.0,61,0.00,,,0.00,,2013-06-29 05:31:00,
2013-06-29 00:41:00,72.0,59.0,29.83,NNW,342,1.0,1.0,64,0.00,,,0.00,,2013-06-29 05:41:00,
2013-06-29 00:52:00,72.0,59.0,29.83,NNW,342,1.0,1.0,64,0.00,,,0.00,,2013-06-29 05:52:00,
2013-06-29 01:01:00,72.0,59.0,29.83,NNW,342,1.0,1.0,64,0.00,,,0.00,,2013-06-29 06:01:00,
2013-06-29 01:12:00,71.0,59.0,29.83,NNW,342,1.0,1.0,65,0.00,,,0.00,,2013-06-29 06:12:00,
2013-06-29 01:22:00,71.0,59.0,29.83,NNW,342,1.0,1.0,65,0.00,,,0.00,,2013-06-29 06:22:00,
2013-06-29 01:33:00,71.0,59.0,29.83,NNW,342,1.0,1.0,65,0.00,,,0.00,,2013-06-29 06:33:00,
2013-06-29 01:43:00,71.0,59.0,29.83,NNW,340,1.0,1.0,66,0.00,,,0.00,,2013-06-29 06:43:00,
2013-06-29 01:53:00,71.0,59.0,29.83,NNW,340,1.0,1.0,66,0.00,,,0.00,,2013-06-29 06:53:00,
2013-06-29 02:02:00,71.0,59.0,29.83,NNW,340,1.0,1.0,66,0.00,,,0.00,,2013-06-29 07:02:00,
2013-06-29 02:12:00,70.0,59.0,29.83,NNW,340,2.0,2.0,67,0.00,,,0.00,,2013-06-29 07:12:00,
2013-06-29 02:22:00,70.0,59.0,29.83,NNW,340,2.0,2.0,67,0.00,,,0.00,,2013-06-29 07:22:00,
2013-06-29 02:33:00,70.0,59.0,29.83,NNW,340,2.0,2.0,67,0.00,,,0.00,,2013-06-29 07:33:00,
2013-06-29 02:43:00,70.0,59.0,29.83,NNW,340,2.0,2.0,69,0.00,,,0.00,,2013-06-29 07:43:00,
2013-06-29 02:53:00,70.0,59.0,29.83,NNW,340,2.0,2.0,69,0.00,,,0.00,,2013-06-29 07:53:00,
2013-06-29 03:01:00,70.0,59.0,29.83,NNW,340,2.0,2.0,69,0.00,,,0.00,,2013-06-29 08:01:00,
2013-06-29 03:12:00,69.0,58.0,29.83,NNW,341,2.0,2.0,69,0.00,,,0.00,,2013-06-29 08:12:00,
2013-06-29 03:22:00,69.0,58.0,29.83,NNW,341,2.0,2.0,69,0.00,,,0.00,,2013-06-29 08:22:00,
2013-06-29 03:33:00,69.0,58.0,29.83,NNW,341,2.0,2.0,69,0.00,,,0.00,,2013-06-29 08:33:00,
2013-06-29 03:43:00,68.0,57.0,29.83,NNW,341,2.0,2.0,69,0.00,,,0.00,,2013-06-29 08:43:00,
2013-06-29 03:52:00,68.0,57.0,29.83,NNW,341,2.0,2.0,69,0.00,,,0.00,,2013-06-29 08:52:00,
2013-06-29 04:02:00,68.0,57.0,29.83,NNW,341,2.0,2.0,69,0.00,,,0.00,,2013-06-29 09:02:00,
2013-06-29 04:12:00,68.0,58.0,29.83,North,360,0.0,0.0,71,0.00,,,0.00,,2013-06-29 09:12:00,
2013-06-29 04:22:00,68.0,58.0,29.83,North,360,0.0,0.0,71,0.00,,,0.00,,2013-06-29 09:22:00,
2013-06-29 04:33:00,68.0,58.0,29.83,North,360,0.0,0.0,71,0.00,,,0.00,,2013-06-29 09:33:00,
2013-06-29 04:42:00,67.0,57.0,29.83,North,360,0.0,0.0,71,0.00,,,0.00,,2013-06-29 09:42:00,
2013-06-29 04:53:00,67.0,57.0,29.83,North,360,0.0,0.0,71,0.00,,,0.00,,2013-06-29 09:53:00,
2013-06-29 05:01:00,67.0,57.0,29.83,North,360,0.0,0.0,71,0.00,,,0.00,,2013-06-29 10:01:00,
2013-06-29 05:11:00,66.0,57.0,29.84,NNW,341,1.0,1.0,72,0.00,,,0.00,,2013-06-29 10:11:00,
2013-06-29 05:22:00,66.0,57.0,29.84,NNW,341,1.0,1.0,72,0.00,,,0.00,,2013-06-29 10:22:00,
2013-06-29 05:33:00,66.0,57.0,29.84,NNW,341,1.0,1.0,72,0.00,,,0.00,,2013-06-29 10:33:00,
2013-06-29 05:43:00,65.0,57.0,29.83,North,360,0.0,0.0,75,0.00,,,0.00,,2013-06-29 10:43:00,
2013-06-29 05:52:00,65.0,57.0,29.83,North,360,0.0,0.0,75,0.00,,,0.00,,2013-06-29 10:52:00,
2013-06-29 06:02:00,65.0,57.0,29.83,North,360,0.0,0.0,75,0.00,,,0.00,,2013-06-29 11:02:00,
2013-06-29 06:11:00,65.0,57.0,29.84,NNW,341,0.0,1.0,76,0.00,,,0.00,,2013-06-29 11:11:00,
2013-06-29 06:23:00,65.0,57.0,29.84,NNW,341,0.0,1.0,76,0.00,,,0.00,,2013-06-29 11:23:00,
2013-06-29 06:33:00,65.0,57.0,29.84,NNW,341,0.0,1.0,76,0.00,,,0.00,,2013-06-29 11:33:00,
2013-06-29 06:43:00,65.0,58.0,29.85,West,265,1.0,2.0,77,0.00,,,0.00,,2013-06-29 11:43:00,
2013-06-29 06:53:00,65.0,58.0,29.85,West,265,1.0,2.0,77,0.00,,,0.00,,2013-06-29 11:53:00,
2013-06-29 07:02:00,65.0,58.0,29.85,West,265,1.0,2.0,77,0.00,,,0.00,,2013-06-29 12:02:00,
2013-06-29 07:12:00,65.0,57.0,29.85,WNW,286,1.0,1.0,75,0.00,,,0.00,,2013-06-29 12:12:00,
2013-06-29 07:22:00,65.0,57.0,29.85,WNW,286,1.0,1.0,75,0.00,,,0.00,,2013-06-29 12:22:00,
2013-06-29 07:34:00,65.0,57.0,29.85,WNW,286,1.0,1.0,75,0.00,,,0.00,,2013-06-29 12:34:00,
2013-06-29 07:43:00,66.0,58.0,29.85,WNW,283,2.0,2.0,75,0.00,,,0.00,,2013-06-29 12:43:00,
2013-06-29 07:53:00,66.0,58.0,29.85,WNW,283,2.0,2.0,75,0.00,,,0.00,,2013-06-29 12:53:00,
2013-06-29 08:02:00,66.0,58.0,29.85,WNW,283,2.0,2.0,75,0.00,,,0.00,,2013-06-29 13:02:00,
2013-06-29 08:11:00,67.0,58.0,29.85,WNW,290,1.0,2.0,73,0.00,,,0.00,,2013-06-29 13:11:00,
2013-06-29 08:23:00,67.0,58.0,29.85,WNW,290,1.0,2.0,73,0.00,,,0.00,,2013-06-29 13:23:00,
2013-06-29 08:34:00,67.0,58.0,29.85,WNW,290,1.0,2.0,73,0.00,,,0.00,,2013-06-29 13:34:00,
2013-06-29 08:43:00,69.0,58.0,29.85,NW,326,2.0,5.0,69,0.00,,,0.00,,2013-06-29 13:43:00,
2013-06-29 08:53:00,69.0,58.0,29.85,NW,326,2.0,5.0,69,0.00,,,0.00,,2013-06-29 13:53:00,
2013-06-29 09:02:00,69.0,58.0,29.85,NW,326,2.0,5.0,69,0.00,,,0.00,,2013-06-29 14:02:00,
2013-06-29 09:12:00,71.0,59.0,29.85,NNW,348,2.0,3.0,67,0.00,,,0.00,,2013-06-29 14:12:00,
2013-06-29 09:23:00,71.0,59.0,29.85,NNW,348,2.0,3.0,67,0.00,,,0.00,,2013-06-29 14:23:00,
2013-06-29 09:34:00,71.0,59.0,29.85,NNW,348,2.0,3.0,67,0.00,,,0.00,,2013-06-29 14:34:00,
2013-06-29 09:44:00,72.0,60.0,29.85,North,351,3.0,4.0,67,0.00,,,0.00,,2013-06-29 14:44:00,
2013-06-29 09:53:00,72.0,60.0,29.85,North,351,3.0,4.0,67,0.00,,,0.00,,2013-06-29 14:53:00,
2013-06-29 10:01:00,72.0,60.0,29.85,North,351,3.0,4.0,67,0.00,,,0.00,,2013-06-29 15:01:00,
2013-06-29 10:11:00,74.0,61.0,29.84,North,355,3.0,3.0,63,0.00,,,0.00,,2013-06-29 15:11:00,
2013-06-29 10:22:00,74.0,61.0,29.84,North,355,3.0,3.0,63,0.00,,,0.00,,2013-06-29 15:22:00,
2013-06-29 10:33:00,74.0,61.0,29.84,North,355,3.0,3.0,63,0.00,,,0.00,,2013-06-29 15:33:00,
2013-06-29 10:42:00,76.0,62.0,29.84,NNW,340,3.0,7.0,63,0.00,,,0.00,,2013-06-29 15:42:00,
2013-06-29 10:53:00,76.0,62.0,29.84,NNW,340,3.0,7.0,63,0.00,,,0.00,,2013-06-29 15:53:00,
2013-06-29 11:02:00,76.0,62.0,29.84,NNW,340,3.0,7.0,63,0.00,,,0.00,,2013-06-29 16:02:00,
2013-06-29 11:12:00,77.0,61.0,29.84,NNW,338,4.0,8.0,58,0.00,,,0.00,,2013-06-29 16:12:00,
2013-06-29 11:22:00,77.0,61.0,29.84,NNW,338,4.0,8.0,58,0.00,,,0.00,,2013-06-29 16:22:00,
2013-06-29 11:33:00,77.0,61.0,29.84,NNW,338,4.0,8.0,58,0.00,,,0.00,,2013-06-29 16:33:00,
2013-06-29 11:43:00,78.0,59.0,29.83,WNW,294,6.0,6.0,53,0.00,,,0.00,,2013-06-29 16:43:00,
2013-06-29 11:53:00,78.0,59.0,29.83,WNW,294,6.0,6.0,53,0.00,,,0.00,,2013-06-29 16:53:00,
2013-06-29 12:01:00,78.0,59.0,29.83,WNW,294,6.0,6.0,53,0.00,,,0.00,,2013-06-29 17:01:00,
2013-06-29 12:12:00,78.0,58.0,29.83,NW,326,5.0,7.0,50,0.00,,,0.00,,2013-06-29 17:12:00,
2013-06-29 12:23:00,78.0,58.0,29.83,NW,326,5.0,7.0,50,0.00,,,0.00,,2013-06-29 17:23:00,
2013-06-29 12:34:00,78.0,58.0,29.83,NW,326,5.0,7.0,50,0.00,,,0.00,,2013-06-29 17:34:00,
2013-06-29 12:42:00,79.0,59.0,29.83,North,357,8.0,9.0,50,0.00,,,0.00,,2013-06-29 17:42:00,
2013-06-29 12:52:00,79.0,59.0,29.83,North,357,8.0,9.0,50,0.00,,,0.00,,2013-06-29 17:52:00,
2013-06-29 13:01:00,79.0,59.0,29.83,North,357,8.0,9.0,50,0.00,,,0.00,,2013-06-29 18:01:00,
2013-06-29 13:12:00,79.0,57.0,29.82,NNW,340,10.0,14.0,47,0.00,,,0.00,,2013-06-29 18:12:00,
2013-06-29 13:22:00,79.0,57.0,29.82,NNW,340,10.0,14.0,47,0.00,,,0.00,,2013-06-29 18:22:00,
2013-06-29 13:34:00,79.0,57.0,29.82,NNW,340,10.0,14.0,47,0.00,,,0.00,,2013-06-29 18:34:00,
2013-06-29 13:43:00,79.0,55.0,29.82,North,356,5.0,10.0,44,0.00,,,0.00,,2013-06-29 18:43:00,
2013-06-29 13:52:00,79.0,55.0,29.82,North,356,5.0,10.0,44,0.00,,,0.00,,2013-06-29 18:52:00,
2013-06-29 14:01:00,79.0,55.0,29.82,North,356,5.0,10.0,44,0.00,,,0.00,,2013-06-29 19:01:00,
2013-06-29 14:12:00,79.0,56.0,29.81,NNW,339,7.0,9.0,46,0.00,,,0.00,,2013-06-29 19:12:00,
2013-06-29 14:22:00,79.0,56.0,29.81,NNW,339,7.0,9.0,46,0.00,,,0.00,,2013-06-29 19:22:00,
2013-06-29 14:34:00,79.0,56.0,29.81,NNW,339,7.0,9.0,46,0.00,,,0.00,,2013-06-29 19:34:00,
2013-06-29 14:43:00,80.0,58.0,29.81,NNW,338,6.0,6.0,47,0.00,,,0.00,,2013-06-29 19:43:00,
2013-06-29 14:54:00,80.0,58.0,29.81,NNW,338,6.0,6.0,47,0.00,,,0.00,,2013-06-29 19:54:00,
2013-06-29 15:02:00,80.0,58.0,29.81,NNW,338,6.0,6.0,47,0.00,,,0.00,,2013-06-29 20:02:00,
2013-06-29 15:11:00,79.0,55.0,29.80,NNW,334,8.0,9.0,43,0.00,,,0.00,,2013-06-29 20:11:00,
2013-06-29 15:23:00,79.0,55.0,29.80,NNW,334,8.0,9.0,43,0.00,,,0.00,,2013-06-29 20:23:00,
2013-06-29 15:33:00,79.0,55.0,29.80,NNW,334,8.0,9.0,43,0.00,,,0.00,,2013-06-29 20:33:00,
2013-06-29 15:43:00,79.0,56.0,29.80,NNW,346,10.0,10.0,46,0.00,,,0.00,,2013-06-29 20:43:00,
2013-06-29 15:52:00,79.0,56.0,29.80,NNW,346,10.0,10.0,46,0.00,,,0.00,,2013-06-29 20:52:00,
2013-06-29 16:02:00,79.0,56.0,29.80,NNW,346,10.0,10.0,46,0.00,,,0.00,,2013-06-29 21:02:00,
2013-06-29 16:11:00,79.0,56.0,29.79,NNW,338,7.0,8.0,46,0.00,,,0.00,,2013-06-29 21:11:00,
2013-06-29 16:22:00,79.0,56.0,29.79,NNW,338,7.0,8.0,46,0.00,,,0.00,,2013-06-29 21:22:00,
2013-06-29 16:32:00,79.0,56.0,29.79,NNW,338,7.0,8.0,46,0.00,,,0.00,,2013-06-29 21:32:00,
2013-06-29 16:42:00,79.0,55.0,29.79,NW,325,7.0,11.0,43,0.00,,,0.00,,2013-06-29 21:42:00,
2013-06-29 16:52:00,79.0,55.0,29.79,NW,325,7.0,11.0,43,0.00,,,0.00,,2013-06-29 21:52:00,
2013-06-29 17:01:00,79.0,55.0,29.79,NW,325,7.0,11.0,43,0.00,,,0.00,,2013-06-29 22:01:00,
2013-06-29 17:11:00,78.0,55.0,29.79,NNW,330,11.0,11.0,45,0.00,,,0.00,,2013-06-29 22:11:00,
2013-06-29 17:21:00,78.0,55.0,29.79,NNW,330,11.0,11.0,45,0.00,,,0.00,,2013-06-29 22:21:00,
2013-06-29 17:33:00,78.0,55.0,29.79,NNW,330,11.0,11.0,45,0.00,,,0.00,,2013-06-29 22:33:00,
2013-06-29 17:43:00,78.0,58.0,29.79,NNW,334,5.0,7.0,50,0.00,,,0.00,,2013-06-29 22:43:00,
2013-06-29 17:53:00,78.0,58.0,29.79,NNW,334,5.0,7.0,50,0.00,,,0.00,,2013-06-29 22:53:00,
2013-06-29 18:02:00,78.0,58.0,29.79,NNW,334,5.0,7.0,50,0.00,,,0.00,,2013-06-29 23:02:00,
2013-06-29 18:12:00,76.0,57.0,29.80,North,359,8.0,8.0,51,0.00,,,0.00,,2013-06-29 23:12:00,
2013-06-29 18:23:00,76.0,57.0,29.80,North,359,8.0,8.0,51,0.00,,,0.00,,2013-06-29 23:23:00,
2013-06-29 18:34:00,76.0,57.0,29.80,North,359,8.0,8.0,51,0.00,,,0.00,,2013-06-29 23:34:00,
2013-06-29 18:43:00,75.0,59.0,29.80,NNW,340,4.0,6.0,57,0.00,,,0.00,,2013-06-29 23:43:00,
2013-06-29 18:52:00,75.0,59.0,29.80,NNW,340,4.0,6.0,57,0.00,,,0.00,,2013-06-29 23:52:00,
2013-06-29 19:02:00,75.0,59.0,29.80,NNW,340,4.0,6.0,57,0.00,,,0.00,,2013-06-30 00:02:00,
2013-06-29 19:12:00,75.0,59.0,29.80,NW,326,4.0,7.0,58,0.00,,,0.00,,2013-06-30 00:12:00,
2013-06-29 19:22:00,75.0,59.0,29.80,NW,326,4.0,7.0,58,0.00,,,0.00,,2013-06-30 00:22:00,
2013-06-29 19:33:00,75.0,59.0,29.80,NW,326,4.0,7.0,58,0.00,,,0.00,,2013-06-30 00:33:00,
2013-06-29 19:43:00,75.0,59.0,29.81,North,351,7.0,9.0,57,0.00,,,0.00,,2013-06-30 00:43:00,
2013-06-29 19:52:00,75.0,59.0,29.81,North,351,7.0,9.0,57,0.00,,,0.00,,2013-06-30 00:52:00,
2013-06-29 20:01:00,75.0,59.0,29.81,North,351,7.0,9.0,57,0.00,,,0.00,,2013-06-30 01:01:00,
2013-06-29 20:11:00,73.0,58.0,29.83,North,4,8.0,14.0,59,0.00,,,0.00,,2013-06-30 01:11:00,
2013-06-29 20:22:00,73.0,58.0,29.83,North,4,8.0,14.0,59,0.00,,,0.00,,2013-06-30 01:22:00,
2013-06-29 20:33:00,73.0,58.0,29.83,North,4,8.0,14.0,59,0.00,,,0.00,,2013-06-30 01:33:00,
2013-06-29 20:44:00,72.0,60.0,29.82,North,349,5.0,5.0,65,0.00,,,0.00,,2013-06-30 01:44:00,
2013-06-29 20:53:00,72.0,60.0,29.82,North,349,5.0,5.0,65,0.00,,,0.00,,2013-06-30 01:53:00,
2013-06-29 21:02:00,72.0,60.0,29.82,North,349,5.0,5.0,65,0.00,,,0.00,,2013-06-30 02:02:00,
2013-06-29 21:11:00,71.0,59.0,29.82,North,353,3.0,3.0,67,0.00,,,0.00,,2013-06-30 02:11:00,
2013-06-29 21:23:00,71.0,59.0,29.82,North,353,3.0,3.0,67,0.00,,,0.00,,2013-06-30 02:23:00,
2013-06-29 21:34:00,71.0,59.0,29.82,North,353,3.0,3.0,67,0.00,,,0.00,,2013-06-30 02:34:00,
2013-06-29 21:43:00,70.0,59.0,29.84,NNW,344,4.0,4.0,69,0.00,,,0.00,,2013-06-30 02:43:00,
2013-06-29 21:53:00,70.0,59.0,29.84,NNW,344,4.0,4.0,69,0.00,,,0.00,,2013-06-30 02:53:00,
2013-06-29 22:01:00,70.0,59.0,29.84,NNW,344,4.0,4.0,69,0.00,,,0.00,,2013-06-30 03:01:00,
2013-06-29 22:12:00,69.0,60.0,29.85,NNW,344,6.0,6.0,72,0.00,,,0.00,,2013-06-30 03:12:00,
2013-06-29 22:23:00,69.0,60.0,29.85,NNW,344,6.0,6.0,72,0.00,,,0.00,,2013-06-30 03:23:00,
2013-06-29 22:33:00,69.0,60.0,29.85,NNW,344,6.0,6.0,72,0.00,,,0.00,,2013-06-30 03:33:00,
2013-06-29 22:43:00,68.0,59.0,29.85,North,353,3.0,4.0,74,0.00,,,0.00,,2013-06-30 03:43:00,
2013-06-29 22:53:00,68.0,59.0,29.85,North,353,3.0,4.0,74,0.00,,,0.00,,2013-06-30 03:53:00,
2013-06-29 23:01:00,68.0,59.0,29.85,North,353,3.0,4.0,74,0.00,,,0.00,,2013-06-30 04:01:00,
2013-06-29 23:12:00,67.0,60.0,29.85,NNW,344,3.0,3.0,77,0.00,,,0.00,,2013-06-30 04:12:00,
2013-06-29 23:22:00,67.0,60.0,29.85,NNW,344,3.0,3.0,77,0.00,,,0.00,,2013-06-30 04:22:00,
2013-06-29 23:33:00,67.0,60.0,29.85,NNW,344,3.0,3.0,77,0.00,,,0.00,,2013-06-30 04:33:00,
2013-06-29 23:43:00,67.0,60.0,29.85,North,354,6.0,6.0,78,0.00,,,0.00,,2013-06-30 04:43:00,
2013-06-29 23:53:00,67.0,60.0,29.85,North,354,6.0,6.0,78,0.00,,,0.00,,2013-06-30 04:53:00,